* Astronomy

Members Login
Post Info TOPIC: Asteroid 2010 HD112


L

Posts: 131433
Date:
Asteroid 2010 HD112
Permalink  
 


Orbital elements:
2010 HD112
Epoch 2010 May 4.0 TT = JDT 2455320.5 MPC
M 0.04634 (2000.0) P Q
n 0.00332068 Peri. 310.15813 -0.63658907 +0.76830896
a 44.4957370 Node 280.17514 -0.68534817 -0.60328567
e 0.0303980 Incl. 3.88865 -0.35362727 -0.21388723
P 297 H 6.5 G 0.15
From 6 observations 2010 Apr. 20-June 9.

MPEC 2010 - O50


__________________
Page 1 of 1  sorted by
 
Quick Reply

Please log in to post quick replies.



Create your own FREE Forum
Report Abuse
Powered by ActiveBoard